[[{"header":{"parameterUnit":"m.s-1","parameterCategory":1,"la1":30.2991,"la2":30.254,"lo1":-89.0895,"lo2":-89.0444,"dy":0.0017,"dx":0.0017,"nx":28,"ny":28,"refTime":"2025-07-31T09:00:00:Z","depth":0,"parameterNumber":2,"parameterNumberName":"U-component_of_WINDS"},"data":[0,0,0,0,0,0,0,0,0,0,0,0,0,0,0,0,0,0,0,0,0,0,0,0,0,0,0,0,0,0,0,0,0,0,0,0,0,0,0,0,0,0,0,0,0,0,0,0,0,0,0,0,0,0,0,0,0,0,1.87,1.8701,0,1.8777,1.8778,1.8778,1.8699,1.8696,1.8693,1.869,1.8776,1.8781,1.8786,0,0,0,0,0,0,0,0,0,0,0,0,0,1.8492,1.8496,1.87,1.8701,1.8702,1.8777,1.8778,1.8779,1.87,1.8696,1.8692,1.8689,1.8775,1.8781,1.8787,0,0,0,0,0,0,0,0,0,0,0,0,0,1.8577,1.8497,1.87,1.8671,1.8669,1.8776,1.8778,1.8779,1.87,1.8696,1.8691,1.8687,1.8772,1.878,1.8788,1.8929,0,0,1.8811,1.8815,0,0,0,0,0,0,0,0,1.8572,1.8585,1.8675,1.8673,1.8672,1.8723,1.8736,1.883,1.8702,1.8689,1.869,1.8684,1.8763,1.8771,1.8796,1.8933,1.8937,1.8812,1.8817,1.882,1.8822,0,0,0,0,0,0,0,1.8566,1.8581,1.8731,1.8676,1.8674,1.8657,1.8664,1.8753,1.8751,1.869,1.8684,1.8694,1.8761,1.8789,1.8798,1.8938,1.8812,1.8819,1.8824,1.8827,1.9195,1.92,0,0,0,0,0,0,1.8563,1.8576,1.8728,1.8733,1.8609,1.8664,1.8672,1.8712,1.875,1.8751,1.8698,1.869,1.8778,1.8789,1.88,1.8969,1.882,1.8827,1.8832,1.919,1.9196,1.9202,0,0,0,0,0,0,1.8558,1.8577,1.8725,1.8653,1.8671,1.8673,1.8718,1.8716,1.8743,1.8756,1.8756,1.8726,1.8774,1.8789,1.8897,1.8971,1.8831,1.8838,1.9184,1.9192,1.9199,1.9307,0,0,0,0,0,0,1.8553,1.8576,1.8628,1.8655,1.8675,1.8819,1.8722,1.872,1.8756,1.8746,1.8782,1.8784,1.8772,1.8886,1.8905,1.8979,1.8844,1.9178,1.9188,1.9197,1.9297,1.9318,1.9335,0,0,0,0,0,1.8546,1.8657,1.8631,1.865,1.874,1.8823,1.8835,1.8817,1.8762,1.8816,1.8824,1.8783,1.8959,1.8898,1.8918,1.8996,1.9173,1.9185,1.9196,1.9289,1.9314,1.9335,0,0,0,0,0,0,1.8642,1.866,1.8632,1.8755,1.8788,1.881,1.8877,1.8844,1.8895,1.8885,1.8862,1.8871,1.8985,1.9001,1.8932,1.9135,1.9057,1.9074,1.9121,1.9145,1.9163,1.9159,1.8851,0,0,0,0,0,1.8677,1.8741,1.8754,1.8862,1.888,1.8876,1.8911,1.8894,1.8929,1.8943,1.8959,1.8997,1.906,1.9103,1.9162,1.9298,1.9306,1.9362,1.9381,1.9396,1.9412,1.9486,1.9512,1.924,1.924,1.924,0,0,1.8752,1.8769,1.8812,1.8882,1.8905,1.8975,1.8888,1.8965,1.9017,1.8956,1.9058,1.9071,1.9111,1.9234,1.9289,1.9251,1.9488,1.9411,1.9423,1.943,1.9501,1.9526,1.9549,1.9248,1.9246,1.9245,0,0,1.8923,1.8942,1.9033,1.9058,1.9094,1.909,1.9112,1.9139,1.9145,1.9246,1.9202,1.9264,1.9374,1.9404,1.9434,1.9615,1.958,1.9635,1.9736,1.9808,1.983,1.9849,1.9915,1.9939,1.9649,1.965,1.965,0,1.9012,1.9112,1.9086,1.9165,1.9198,1.9142,1.9236,1.9262,1.9317,1.9342,1.9297,1.9434,1.9457,1.9586,1.963,1.9655,1.9682,1.9632,1.9828,1.9847,1.9864,1.9928,1.9953,1.9656,1.9655,1.9655,1.9654,0,1.922,1.929,1.9361,1.9412,1.9452,1.9539,1.9528,1.9572,1.9551,1.9552,1.9657,1.9682,1.9746,1.9775,1.9756,1.9902,1.9878,1.9831,1.9753,1.9897,1.9957,1.998,1.9666,1.9663,1.9661,1.966,0,0,1.9458,1.9491,1.9517,1.954,1.9574,1.9629,1.9714,1.9773,1.9813,1.9852,1.9924,2.0017,1.9973,2.0008,1.9991,2.0055,2.0198,2.0,2.0001,2.0038,2.0364,2.04,2.0429,2.0174,2.0178,2.0182,2.0361,0,1.9631,1.9775,1.9753,1.9893,1.9959,1.9905,1.9979,2.001,2.0013,2.0071,2.0075,2.0142,2.0079,2.0099,2.0159,2.0168,2.0264,2.0155,2.0244,2.0247,2.0238,2.0459,2.0498,2.0666,2.0384,2.0388,2.039,0,1.9853,1.9898,2.0044,2.0067,2.0094,2.016,2.0213,2.0268,2.0301,2.0299,2.0336,2.0308,2.0395,2.0313,2.0434,2.036,2.0395,2.0404,2.041,2.0421,2.033,2.0478,2.0719,2.0745,2.0426,2.0423,2.0421,0,2.0014,2.011,2.021,2.0231,2.026,2.0309,2.0324,2.0352,2.0389,2.0436,2.046,2.0517,2.0549,2.0595,2.0584,2.0525,2.0708,2.0624,2.0711,2.0712,2.0755,2.0753,2.1008,2.0773,2.0772,2.0772,2.0771,0,2.0212,2.0304,2.0283,2.0345,2.0446,2.042,2.0523,2.0532,2.0557,2.0622,2.0579,2.0641,2.0621,2.0682,2.0674,2.0776,2.079,2.0793,2.0791,2.0799,2.0799,2.0824,2.0813,2.0779,2.0777,2.0776,2.0775,0,2.0411,2.04,2.0505,2.0523,2.053,2.0604,2.0621,2.068,2.0679,2.0761,2.0778,2.0778,2.0848,2.084,2.0919,2.0913,2.1041,2.1023,2.1029,2.1026,2.1114,2.1107,2.1396,2.1434,2.1172,2.1175,2.1177,0,2.0539,2.0608,2.0632,2.0671,2.0688,2.0751,2.0788,2.0765,2.0806,2.0848,2.0903,2.0968,2.1019,2.1134,2.1142,2.1203,2.1187,2.1284,2.1197,2.1203,2.1192,2.1189,2.1197,2.1303,2.1306,2.1308,2.131,0,2.0768,2.0759,2.0812,2.0863,2.0907,2.0948,2.0984,2.1018,2.0999,2.1047,2.1116,2.1156,2.1234,2.1301,2.1358,2.1375,2.1342,2.1337,2.1361,2.1372,2.1373,2.1376,2.1079,2.1332,2.133,2.1328,2.1327,2.1326,2.0937,2.0996,2.1022,2.1083,2.1107,2.1141,2.1197,2.1202,2.1258,2.1319,2.1302,2.1382,2.1414,2.1486,2.1509,2.1572,2.1537,2.1571,2.158,2.159,2.1601,2.136,2.1582,2.1582,2.1581,2.1581,2.158,0,2.1166,2.118,2.1235,2.1286,2.1334,2.1293,2.133,2.1374,2.1443,2.1475,2.1525,2.1605,2.1669,2.1681,2.1742,2.1791,2.1777,2.1808,2.1806,2.1811,2.1628,2.1602,2.1818,2.1818,2.1818,2.1818,2.1818,2.1818,2.1292,2.1389,2.1383,2.1493,2.1506,2.1581,2.1606,2.1638,2.1663,2.1754,2.1805,2.1811,2.1836,2.1898,2.1955,2.1957,2.1983,2.2022,2.2018,2.1847,2.1824,2.1801,2.1777,2.2027,2.2027,2.2196,2.2198,2.2199]},{"header":{"parameterUnit":"m.s-1","parameterCategory":1,"la1":30.2991,"la2":30.254,"lo1":-89.0895,"lo2":-89.0444,"dy":0.0017,"dx":0.0017,"nx":28,"ny":28,"refTime":"2025-07-31T09:00:00:Z","depth":0,"parameterNumber":3,"parameterNumberName":"V-component_of_WINDS"},"data":[0,0,0,0,0,0,0,0,0,0,0,0,0,0,0,0,0,0,0,0,0,0,0,0,0,0,0,0,0,0,0,0,0,0,0,0,0,0,0,0,0,0,0,0,0,0,0,0,0,0,0,0,0,0,0,0,0,0,-1.3053,-1.3055,0,-1.3194,-1.3195,-1.3197,-1.3287,-1.3287,-1.3288,-1.3288,-1.3428,-1.3431,-1.3434,0,0,0,0,0,0,0,0,0,0,0,0,0,-1.2858,-1.2861,-1.3053,-1.3055,-1.3057,-1.3193,-1.3195,-1.3197,-1.3287,-1.3287,-1.3288,-1.3289,-1.3427,-1.3431,-1.3435,0,0,0,0,0,0,0,0,0,0,0,0,0,-1.2965,-1.2862,-1.3053,-1.3118,-1.3125,-1.3193,-1.3195,-1.3198,-1.3287,-1.3287,-1.3288,-1.3289,-1.3426,-1.3431,-1.3435,-1.3448,0,0,-1.345,-1.3452,0,0,0,0,0,0,0,0,-1.2959,-1.2972,-1.3106,-1.3113,-1.3122,-1.3224,-1.3178,-1.3282,-1.3286,-1.3225,-1.3288,-1.3289,-1.3359,-1.337,-1.3394,-1.3455,-1.3461,-1.345,-1.3453,-1.3455,-1.3457,0,0,0,0,0,0,0,-1.2951,-1.2966,-1.3109,-1.3108,-1.3118,-1.3139,-1.3155,-1.3198,-1.3286,-1.3231,-1.3237,-1.3253,-1.3363,-1.3389,-1.3398,-1.3463,-1.345,-1.3455,-1.3457,-1.3459,-1.3541,-1.3541,0,0,0,0,0,0,-1.2934,-1.296,-1.3104,-1.3113,-1.3041,-1.3142,-1.316,-1.319,-1.3285,-1.3301,-1.3252,-1.3257,-1.338,-1.3392,-1.3403,-1.3425,-1.3455,-1.346,-1.3463,-1.3542,-1.3541,-1.354,0,0,0,0,0,0,-1.293,-1.2946,-1.3098,-1.3038,-1.3059,-1.3144,-1.3177,-1.3192,-1.3218,-1.3302,-1.3318,-1.3263,-1.3382,-1.3396,-1.3437,-1.3431,-1.3462,-1.3466,-1.3543,-1.3542,-1.3541,-1.3467,0,0,0,0,0,0,-1.2924,-1.2944,-1.2951,-1.3038,-1.3062,-1.313,-1.3177,-1.3194,-1.3227,-1.3234,-1.3316,-1.333,-1.3383,-1.3429,-1.3441,-1.3438,-1.347,-1.3544,-1.3542,-1.3541,-1.347,-1.3464,-1.3458,0,0,0,0,0,-1.2916,-1.2923,-1.2951,-1.2967,-1.3072,-1.313,-1.3144,-1.3206,-1.3226,-1.3233,-1.3286,-1.3327,-1.3429,-1.3432,-1.3447,-1.3445,-1.3544,-1.3543,-1.3541,-1.3473,-1.3465,-1.3458,0,0,0,0,0,0,-1.2832,-1.2936,-1.2967,-1.3003,-1.3057,-1.3145,-1.3156,-1.3196,-1.3244,-1.3249,-1.3323,-1.3341,-1.3373,-1.3413,-1.3415,-1.3462,-1.3492,-1.3493,-1.3435,-1.3428,-1.3422,-1.3411,-1.3474,0,0,0,0,0,-1.2818,-1.2857,-1.2946,-1.2968,-1.2994,-1.307,-1.3097,-1.3141,-1.3199,-1.3222,-1.3279,-1.3333,-1.3378,-1.3405,-1.345,-1.3477,-1.3496,-1.3483,-1.3476,-1.3471,-1.3471,-1.3487,-1.3482,-1.3535,-1.3535,-1.3535,0,0,-1.2788,-1.285,-1.287,-1.2953,-1.3,-1.3038,-1.3089,-1.3126,-1.3155,-1.3228,-1.327,-1.3313,-1.3378,-1.3411,-1.3429,-1.3446,-1.346,-1.3469,-1.3464,-1.3467,-1.3485,-1.348,-1.3475,-1.3534,-1.3534,-1.3534,0,0,-1.2754,-1.2805,-1.283,-1.2876,-1.2947,-1.2998,-1.3004,-1.3086,-1.3118,-1.3162,-1.3217,-1.3251,-1.3326,-1.337,-1.3402,-1.3385,-1.3424,-1.3397,-1.3364,-1.3379,-1.3375,-1.3372,-1.3365,-1.3362,-1.3397,-1.3397,-1.3397,0,-1.2708,-1.2769,-1.2837,-1.2872,-1.2906,-1.2976,-1.3,-1.3042,-1.3123,-1.3145,-1.3163,-1.3259,-1.3307,-1.3352,-1.3347,-1.3372,-1.3379,-1.3388,-1.3371,-1.3368,-1.3366,-1.336,-1.3357,-1.3393,-1.3394,-1.3394,-1.3395,0,-1.2708,-1.2749,-1.276,-1.2839,-1.2875,-1.2904,-1.2976,-1.3004,-1.3044,-1.3092,-1.3135,-1.3196,-1.3255,-1.3269,-1.3308,-1.3319,-1.3327,-1.3357,-1.3388,-1.3356,-1.3352,-1.335,-1.3388,-1.3389,-1.339,-1.3391,0,0,-1.2624,-1.2741,-1.2743,-1.278,-1.2864,-1.2896,-1.2928,-1.2987,-1.3009,-1.3063,-1.3091,-1.3153,-1.3182,-1.3218,-1.3263,-1.3276,-1.3258,-1.3305,-1.3307,-1.3293,-1.3273,-1.3249,-1.3245,-1.3285,-1.3285,-1.3285,-1.3267,0,-1.2602,-1.2665,-1.2727,-1.2767,-1.2806,-1.2872,-1.29,-1.2954,-1.2999,-1.3037,-1.3088,-1.313,-1.3165,-1.3187,-1.3204,-1.3257,-1.3255,-1.3259,-1.331,-1.3311,-1.3291,-1.3243,-1.3219,-1.3199,-1.3266,-1.3266,-1.3265,0,-1.2584,-1.2636,-1.268,-1.2761,-1.2779,-1.2803,-1.2862,-1.2898,-1.296,-1.2992,-1.3033,-1.3081,-1.3117,-1.3144,-1.3194,-1.3196,-1.3221,-1.325,-1.3251,-1.3257,-1.3286,-1.3248,-1.3194,-1.3191,-1.3264,-1.3264,-1.3264,0,-1.2517,-1.2598,-1.2636,-1.2665,-1.2759,-1.2775,-1.2814,-1.2877,-1.2909,-1.296,-1.2981,-1.3035,-1.3064,-1.3104,-1.3165,-1.318,-1.3208,-1.3241,-1.3235,-1.3234,-1.3238,-1.3236,-1.3186,-1.3255,-1.3255,-1.3255,-1.3255,0,-1.2485,-1.2509,-1.2607,-1.2629,-1.2658,-1.2729,-1.2755,-1.2801,-1.2856,-1.2888,-1.2949,-1.2977,-1.3056,-1.3093,-1.3141,-1.3175,-1.3187,-1.3214,-1.3226,-1.3208,-1.3204,-1.3225,-1.3227,-1.3254,-1.3254,-1.3254,-1.3254,0,-1.2415,-1.2482,-1.2526,-1.2612,-1.2635,-1.2652,-1.2725,-1.2749,-1.2799,-1.2838,-1.2851,-1.2928,-1.2975,-1.304,-1.3107,-1.3139,-1.3166,-1.3186,-1.3145,-1.3152,-1.3143,-1.3142,-1.3104,-1.3102,-1.3171,-1.317,-1.317,0,-1.239,-1.241,-1.2499,-1.2525,-1.2564,-1.2605,-1.2638,-1.2708,-1.274,-1.2812,-1.2827,-1.2879,-1.2924,-1.2996,-1.3057,-1.3108,-1.3129,-1.3112,-1.3137,-1.3118,-1.3128,-1.3126,-1.3128,-1.3105,-1.3104,-1.3103,-1.3103,0,-1.2338,-1.237,-1.2416,-1.2473,-1.251,-1.2558,-1.2609,-1.2626,-1.2708,-1.2739,-1.2789,-1.2824,-1.2893,-1.2943,-1.3003,-1.3043,-1.3086,-1.3095,-1.3096,-1.3077,-1.3053,-1.3065,-1.3128,-1.3095,-1.3096,-1.3096,-1.3097,-1.3097,-1.229,-1.2311,-1.2376,-1.2425,-1.2471,-1.2517,-1.2543,-1.2597,-1.264,-1.2702,-1.2741,-1.2788,-1.2849,-1.2934,-1.2972,-1.3009,-1.3027,-1.3028,-1.3029,-1.3028,-1.3022,-1.3047,-1.302,-1.3021,-1.3021,-1.3021,-1.3021,0,-1.224,-1.2286,-1.233,-1.2399,-1.2437,-1.2476,-1.2534,-1.2563,-1.2604,-1.2658,-1.2702,-1.2759,-1.2808,-1.2873,-1.2927,-1.2944,-1.2965,-1.2956,-1.2955,-1.2963,-1.3003,-1.2997,-1.2938,-1.2938,-1.2938,-1.2938,-1.2938,-1.2938,-1.2219,-1.2256,-1.2296,-1.2356,-1.2402,-1.245,-1.248,-1.2522,-1.2566,-1.2626,-1.2668,-1.2711,-1.277,-1.2828,-1.2875,-1.2893,-1.2909,-1.2893,-1.2917,-1.2953,-1.296,-1.2968,-1.2962,-1.2897,-1.2896,-1.2874,-1.2874,-1.2873]}]]